Weather History for Kansas City International, MO

Change the Weather History Date:

Tuesday, November 20, 2012

  Actual Average Record
Temperature  
Mean Temperature 51 °F 41 °F  
Max Temperature 64 °F 51 °F 79 °F (1897)
Min Temperature 38 °F 32 °F 8 °F (1937)
Degree Days  
Heating Degree Days 14 24  
Month to date heating degree days 310 379  
Since 1 July heating degree days 712 739  
Cooling Degree Days 0 0  
Month to date cooling degree days 5 0  
Year to date cooling degree days 1839 1358  
Moisture  
Dew Point 39 °F    
Average Humidity 66    
Maximum Humidity 85    
Minimum Humidity 46    
Precipitation  
Precipitation 0.00 in 0.07 in 2.03 in (1973)
Month to date precipitation 1.36 1.49  
Year to date precipitation 20.94 36.67  
Snow  
Snow 0.00 in 0.00 in 0.90 in (1926)
Month to date snowfall 0.0 0.5  
Since 1 July snowfall 0.0 0.7  
Since 1 September snowfall 0.0 0.7  
Snow Depth 0.00 in    
Sea Level Pressure  
Sea Level Pressure 30.17 in    
Wind  
Wind Speed 5 mph (West)    
Max Wind Speed 9 mph    
Max Gust Speed 12 mph    
Visibility 10 miles    
Events      
T = Trace of Precipitation, MM = Missing Value Source: NWS Daily Summary

Daily Weather History Graph

Daily Weather History Graph

Search for Another Location

Airport:

Trip Planner

Search our weather history database for the weather conditions in past years. The results will help you decide how hot, cold, wet, or windy it might be!

Date:

Astronomy

Nov. 20, 2012 Rise Set
Actual Time 7:08 AM CST 5:00 PM CST
Civil Twilight 6:39 AM CST 5:29 PM CST
Nautical Twilight 6:06 AM CST 6:02 PM CST
Astronomical Twilight 5:34 AM CST 6:34 PM CST
Moon 12:44 PM CST (11/20) No Moon Set
Length of Visible Light 10h 49m
Length of Day
9h 51m
First Quarter, 51% of the Moon is Illuminated
Nov 20
First Quarter
Nov 28
Full
Dec 6
Last Quarter
Dec 13
New
Dec 19
First Quarter

Hourly Weather History & Observations

Time (CST) Temp. Windchill Dew Point Humidity Pressure Visibility Wind Dir Wind Speed Gust Speed Precip Events Conditions
12:53 AM 46.9 °F - 39.0 °F 74% 30.10 in 10.0 mi NW 6.9 mph - N/A   Clear
1:53 AM 46.0 °F 42.5 °F 37.9 °F 73% 30.11 in 10.0 mi WNW 6.9 mph - N/A   Clear
2:53 AM 44.1 °F 40.8 °F 37.0 °F 76% 30.12 in 10.0 mi WNW 5.8 mph - N/A   Clear
3:53 AM 43.0 °F 38.8 °F 37.0 °F 80% 30.12 in 10.0 mi NW 6.9 mph - N/A   Clear
4:53 AM 41.0 °F 36.4 °F 36.0 °F 82% 30.14 in 10.0 mi WNW 6.9 mph - N/A   Clear
5:53 AM 41.0 °F 36.4 °F 35.1 °F 79% 30.16 in 10.0 mi WNW 6.9 mph - N/A   Clear
6:53 AM 39.0 °F 34.0 °F 34.0 °F 82% 30.17 in 10.0 mi WNW 6.9 mph - N/A   Clear
7:53 AM 39.9 °F 34.5 °F 35.1 °F 83% 30.20 in 8.0 mi WNW 8.1 mph - N/A   Clear
8:53 AM 44.1 °F 40.8 °F 37.0 °F 76% 30.21 in 9.0 mi WNW 5.8 mph - N/A   Clear
9:53 AM 48.0 °F - 39.0 °F 71% 30.21 in 9.0 mi WNW 6.9 mph - N/A   Clear
10:53 AM 53.1 °F - 39.9 °F 61% 30.21 in 10.0 mi Variable 4.6 mph - N/A   Clear
11:53 AM 55.9 °F - 41.0 °F 57% 30.19 in 10.0 mi WNW 6.9 mph - N/A   Clear
12:53 PM 60.1 °F - 41.0 °F 49% 30.18 in 10.0 mi Variable 5.8 mph - N/A   Clear
1:53 PM 61.0 °F - 41.0 °F 48% 30.17 in 10.0 mi NW 3.5 mph - N/A   Clear
2:53 PM 62.1 °F - 41.0 °F 46% 30.16 in 10.0 mi Variable 4.6 mph - N/A   Clear
3:53 PM 62.1 °F - 41.0 °F 46% 30.17 in 10.0 mi Calm Calm - N/A   Clear
4:53 PM 57.9 °F - 39.9 °F 51% 30.17 in 6.0 mi Calm Calm - N/A   Haze
5:53 PM 57.0 °F - 39.9 °F 53% 30.18 in 10.0 mi Calm Calm - N/A   Partly Cloudy
6:53 PM 57.0 °F - 39.9 °F 53% 30.19 in 10.0 mi SW 3.5 mph - N/A   Clear
7:53 PM 51.1 °F - 39.9 °F 66% 30.20 in 10.0 mi SSE 3.5 mph - N/A   Clear
8:53 PM 51.1 °F - 39.0 °F 63% 30.20 in 10.0 mi SSE 3.5 mph - N/A   Clear
9:53 PM 51.1 °F - 39.0 °F 63% 30.21 in 10.0 mi South 5.8 mph - N/A   Clear
10:53 PM 46.0 °F 42.5 °F 37.9 °F 73% 30.20 in 10.0 mi SSE 6.9 mph - N/A   Clear
11:53 PM 45.0 °F 41.2 °F 37.9 °F 76% 30.20 in 9.0 mi South 6.9 mph - N/A   Clear